Probability
0 0 0 0 0 0 0 0 0 0 0 0 0 0 0 0 0 0 0 0 0 0 0 0 0 0 0 0 0 0 0 0 6 3 0 0 0 0 0 0 0 0 0 0
0 0 0 0 0 0 0 0 0 0 0 0 0 0 0 0 0 0 0 0 0 0 0 0 0 0 0 0 0 0 0 0 0 0 0 0 0 0 0 0 0 0 0 0
0 0 0 0 0 0 0 0 0 0 0 0 0 0 0 0 0 0 0 0 0 0 0 0 0 0 0 0 0 0 0 0 0 0 0 0 0 0 0 0 0 0 0 0
0 0 0 0 0 0 0 0 0 0 0 0 0 0 0 0 0 0 0 0 0 0 0 0 0 0 0 0 0 0 0 0 0 0 0 0 0 0 0 0 0 0 0 0
0 0 0 0 0 0 0 0 0 0 0 0 0 0 0 0 0 0 0 0 0 0 0 0 0 0 0 0 0 0 0 0 0 0 0 0 0 0 0 0 0 0 0 0
0 0 0 0 0 0 0 0 0 0 0 0 0 0 0 0 0 0 0 0 0 0 0 0 0 0 0 0 0 0 0 0 0 0 0 0 0 0 0 0 0 0 0 0
0 0 0 0 0 0 0 0 0 0 0 0 0 0 0 0 0 0 0 0 0 0 0 0 0 0 0 0 0 0 0 0 0 0 0 0 0 0 0 0 0 0 0 0
0 0 0 0 0 0 0 0 0 0 0 0 0 0 0 0 0 0 0 0 0 0 0 0 0 0 0 0 0 0 0 0 0 0 0 0 0 0 0 0 0 0 0 0
0 0 0 0 0 0 0 0 0 0 0 0 0 0 0 0 0 0 0 0 0 0 0 0 0 0 0 0 0 0 0 0 0 0 0 0 0 0 0 0 0 0 0 0
0 0 0 0 0 0 0 0 0 0 0 0 0 0 0 0 0 0 0 0 0 0 0 0 0 0 0 0 0 0 0 0 0 0 0 0 0 0 0 0 0 0 0 0
0 0 0 0 0 0 0 0 0 0 0 0 0 0 0 0 0 0 0 0 0 0 0 0 0 0 0 0 0 0 0 0 0 0 0 0 0 0 0 0 0 0 0 0
0 0 0 0 0 0 0 0 0 0 0 0 0 0 0 0 0 0 0 0 0 0 0 0 0 0 0 0 0 0 0 0 0 0 0 0 0 0 0 0 0 0 0 0
0 0 0 0 0 0 0 0 0 0 0 0 0 0 0 0 0 0 0 0 0 0 0 0 0 0 0 0 0 0 0 0 0 0 0 0 0 0 0 0 0 0 0 0
0 0 0 0 0 0 0 0 0 0 0 0 0 0 0 0 0 0 0 0 0 0 0 0 0 0 0 0 0 0 0 0 0 0 0 0 0 0 0 0 0 0 0 0
0 0 0 0 0 0 0 0 0 0 0 0 0 0 0 0 0 0 0 0 0 0 0 0 0 0 0 0 0 0 0 0 0 0 0 0 0 0 0 0 0 0 0 0
0 0 0 0 0 0 0 0 0 0 0 0 0 0 0 0 0 0 0 0 0 0 0 0 0 0 0 0 0 0 0 0 0 0 0 0 0 0 0 0 0 0 0 0
0 0 0 0 0 0 0 0 0 0 0 0 0 0 0 0 0 0 0 0 0 0 0 0 0 0 0 0 0 0 0 0 0 0 0 0 0 0 0 0 0 0 0 0
0 0 0 0 0 0 0 0 0 0 0 0 0 0 0 0 0 0 0 0 0 0 0 0 0 0 0 0 0 0 0 0 0 0 0 0 0 0 0 0 0 0 0 0
0 0 0 0 0 0 0 0 0 0 0 0 0 0 0 0 0 0 0 0 0 0 0 0 0 0 0 0 0 0 0 0 0 0 0 0 0 0 0 0 0 0 0 0
0 0 0 0 0 0 0 0 0 0 0 0 0 0 0 0 0 0 0 0 0 0 0 0 0 0 0 0 0 0 0 0 0 0 0 0 0 0 0 0 0 0 0 0
0 0 0 0 0 0 0 0 0 0 0 0 0 0 0 0 0 0 0 0 0 0 0 0 0 0 0 0 0 0 0 0 0 0 0 0 0 0 0 0 0 0 0 0
0 0 0 0 0 0 0 0 0 0 0 0 0 0 0 0 0 0 0 0 0 0 0 0 0 0 0 0 0 0 0 0 0 0 0 0 0 0 0 0 0 0 0 0
0 0 0 0 0 0 0 0 0 0 0 0 0 0 0 0 0 0 0 0 0 0 0 0 0 0 0 0 0 0 0 0 0 0 0 0 0 0 0 0 0 0 0 0
0 0 0 0 0 0 0 0 0 0 0 0 0 0 0 0 0 0 0 0 0 0 0 0 0 0 0 0 0 0 0 0 0 0 0 0 0 0 0 0 0 0 0 0
0 0 0 0 0 0 0 0 0 0 0 0 0 0 0 0 0 0 0 0 0 0 0 0 0 0 0 0 0 0 0 0 0 0 0 0 0 0 0 0 0 0 0 0
0 0 0 0 0 0 0 0 0 0 0 0 0 0 0 0 0 0 0 0 0 0 0 0 0 0 0 0 0 0 0 0 0 0 0 0 0 0 0 0 0 0 0 0
Height
5691 5696 5699 5701 5704 5707 5709 5711 5713 5715 5715 5716 5719 5722 5724 5724 5725 5726 5727 5727 5727 5729 5732 5734 5737 5740 5743 5746 5748 5750 5752 5754 5756 5757 5759 5761 5762 5763 5764 5764 5764 5764 5764 5764
5686 5690 5692 5695 5697 5699 5701 5703 5704 5705 5704 5706 5709 5712 5714 5714 5715 5715 5715 5715 5716 5717 5720 5723 5726 5729 5733 5736 5739 5741 5744 5746 5748 5750 5751 5753 5754 5755 5756 5756 5757 5757 5757 5757
5680 5684 5686 5688 5690 5691 5693 5694 5694 5694 5694 5695 5696 5701 5705 5704 5703 5703 5703 5702 5703 5704 5707 5710 5714 5718 5722 5726 5730 5733 5735 5738 5740 5742 5744 5745 5747 5747 5748 5749 5749 5749 5749 5749
5674 5677 5679 5681 5682 5683 5685 5685 5684 5684 5683 5684 5685 5683 5694 5691 5691 5690 5689 5687 5688 5690 5693 5697 5701 5706 5711 5716 5720 5723 5726 5729 5731 5734 5736 5737 5739 5740 5741 5741 5741 5742 5742 5742
5668 5671 5673 5674 5675 5675 5675 5675 5675 5673 5670 5671 5672 5666 5676 5677 5677 5676 5674 5672 5672 5675 5679 5684 5688 5694 5699 5703 5708 5712 5716 5720 5723 5725 5727 5729 5732 5733 5733 5733 5734 5734 5734 5734
5662 5664 5666 5667 5667 5667 5666 5665 5664 5661 5658 5658 5660 5651 5656 5663 5659 5657 5657 5656 5657 5660 5664 5670 5675 5681 5686 5692 5697 5701 5706 5710 5714 5717 5719 5722 5724 5725 5725 5725 5726 5726 5726 5726
5655 5657 5658 5658 5659 5658 5657 5656 5653 5649 5646 5646 5643 5637 5642 5646 5641 5637 5637 5638 5641 5644 5649 5655 5662 5668 5675 5681 5687 5692 5697 5701 5705 5708 5711 5714 5716 5717 5717 5718 5718 5719 5718 5718
5649 5651 5651 5651 5650 5649 5648 5646 5643 5638 5633 5630 5626 5624 5629 5627 5622 5617 5616 5619 5623 5629 5634 5641 5648 5656 5663 5669 5676 5682 5687 5692 5696 5700 5703 5706 5708 5709 5710 5711 5711 5711 5710 5709
5642 5644 5644 5643 5642 5641 5638 5636 5632 5626 5621 5616 5613 5611 5612 5610 5603 5599 5599 5601 5606 5612 5619 5627 5635 5643 5650 5658 5665 5672 5678 5683 5687 5691 5695 5698 5700 5702 5703 5703 5703 5703 5702 5701
5635 5637 5637 5635 5634 5632 5630 5627 5623 5616 5609 5603 5600 5598 5596 5593 5587 5584 5583 5584 5588 5595 5603 5611 5620 5630 5638 5647 5655 5662 5668 5673 5678 5683 5686 5690 5692 5694 5695 5696 5696 5695 5694 5692
5628 5629 5630 5629 5627 5624 5622 5619 5613 5607 5601 5594 5587 5588 5584 5579 5573 5571 5570 5570 5573 5579 5588 5597 5607 5617 5627 5636 5645 5653 5659 5665 5670 5675 5679 5682 5685 5687 5688 5688 5688 5687 5685 5684
5621 5623 5623 5623 5620 5617 5614 5611 5605 5600 5593 5584 5576 5576 5573 5566 5560 5558 5557 5557 5559 5565 5574 5584 5595 5606 5617 5627 5636 5644 5651 5657 5662 5667 5672 5675 5677 5679 5680 5680 5680 5679 5677 5675
5616 5618 5618 5617 5616 5612 5608 5604 5598 5591 5584 5576 5568 5566 5561 5556 5550 5547 5546 5546 5548 5554 5562 5573 5585 5597 5609 5619 5628 5636 5643 5650 5656 5661 5665 5668 5670 5672 5672 5672 5672 5670 5669 5666
5612 5613 5613 5612 5609 5604 5602 5598 5592 5584 5577 5569 5563 5558 5554 5547 5542 5540 5538 5537 5539 5545 5553 5565 5578 5590 5602 5612 5622 5630 5637 5644 5649 5654 5658 5661 5663 5664 5665 5665 5663 5662 5660 5658
5608 5609 5608 5606 5603 5600 5596 5592 5586 5579 5573 5566 5560 5553 5548 5542 5537 5535 5533 5533 5535 5541 5550 5561 5574 5587 5598 5608 5617 5625 5632 5638 5644 5649 5652 5655 5657 5657 5657 5657 5655 5654 5651 5649
5604 5605 5604 5602 5599 5596 5592 5587 5581 5576 5570 5564 5558 5552 5546 5541 5536 5534 5533 5533 5536 5543 5552 5563 5575 5586 5596 5606 5614 5621 5628 5634 5639 5643 5646 5649 5650 5650 5650 5649 5647 5645 5643 5640
5600 5601 5601 5599 5596 5594 5590 5585 5579 5574 5569 5564 5559 5554 5548 5544 5540 5538 5538 5539 5543 5549 5558 5567 5577 5587 5596 5604 5612 5619 5625 5630 5635 5638 5641 5642 5643 5643 5642 5641 5639 5637 5634 5630
5598 5597 5597 5597 5596 5592 5591 5584 5579 5575 5570 5566 5561 5557 5553 5550 5547 5546 5547 5549 5553 5558 5566 5573 5581 5589 5597 5604 5611 5617 5623 5627 5631 5633 5635 5636 5636 5636 5635 5633 5631 5628 5625 5621
5595 5595 5595 5595 5593 5591 5589 5585 5580 5576 5573 5569 5566 5563 5560 5557 5555 5555 5556 5558 5562 5567 5573 5579 5586 5592 5599 5605 5610 5616 5620 5624 5626 5628 5629 5629 5629 5628 5627 5625 5623 5619 5616 5611
5593 5594 5594 5594 5592 5591 5590 5586 5582 5580 5577 5574 5571 5569 5567 5566 5565 5565 5565 5567 5571 5574 5579 5584 5589 5594 5600 5605 5609 5613 5617 5619 5621 5622 5623 5623 5622 5621 5620 5617 5614 5610 5606 5601
5591 5592 5593 5592 5591 5591 5590 5587 5585 5584 5582 5578 5576 5574 5573 5572 5573 5573 5573 5575 5578 5581 5584 5588 5592 5596 5600 5604 5608 5611 5613 5615 5616 5617 5617 5617 5616 5614 5612 5609 5605 5601 5596 5591
5590 5591 5592 5592 5591 5593 5590 5588 5587 5585 5583 5581 5580 5579 5578 5578 5578 5578 5579 5581 5582 5585 5588 5591 5594 5597 5600 5603 5606 5608 5609 5611 5611 5611 5611 5610 5609 5607 5604 5600 5596 5591 5586 5580
5588 5590 5590 5592 5593 5591 5589 5588 5587 5586 5585 5584 5583 5583 5582 5582 5582 5583 5583 5585 5586 5588 5590 5593 5595 5597 5600 5602 5603 5605 5606 5606 5606 5606 5605 5604 5602 5599 5595 5591 5586 5581 5575 5569
5586 5587 5588 5589 5590 5590 5589 5588 5588 5587 5586 5586 5585 5585 5585 5585 5585 5585 5586 5587 5588 5590 5591 5593 5595 5597 5598 5600 5601 5602 5602 5602 5602 5601 5599 5597 5594 5590 5586 5582 5576 5571 5564 5558
5584 5585 5586 5587 5588 5588 5588 5588 5587 5587 5587 5586 5586 5586 5586 5586 5587 5587 5588 5589 5590 5591 5592 5593 5594 5596 5597 5597 5598 5598 5598 5597 5596 5594 5592 5589 5586 5582 5577 5572 5566 5560 5554 5547
5581 5583 5584 5585 5586 5586 5586 5586 5586 5586 5586 5586 5586 5586 5586 5587 5587 5588 5588 5589 5590 5591 5592 5592 5593 5594 5594 5595 5595 5594 5593 5592 5590 5587 5585 5581 5577 5573 5568 5563 5557 5550 5544 5536
Wind_Speed
30 30 30 30 30 31 31 32 33 33 34 36 36 37 37 37 38 38 40 43 46 48 47 46 45 43 42 42 43 43 43 43 42 40 38 37 36 37 37 38 37 36 35 34
28 28 28 28 29 30 31 33 34 37 39 41 41 41 41 41 41 42 43 44 46 48 49 48 47 46 44 43 43 43 43 43 43 42 40 38 37 37 38 38 37 37 36 35
28 27 27 27 29 30 32 35 37 40 42 44 47 47 45 46 45 45 46 47 48 49 50 49 49 48 46 44 43 44 43 43 43 43 42 40 38 38 38 37 37 37 37 37
28 27 28 29 30 33 35 37 41 43 46 48 50 54 50 50 48 47 47 49 50 51 51 51 50 49 47 45 44 44 43 43 43 43 42 41 39 38 37 37 37 37 37 38
29 29 30 30 32 35 37 40 43 46 49 52 52 57 54 52 51 49 49 50 52 53 53 52 51 50 49 47 46 45 44 43 43 43 42 41 39 37 37 37 37 37 38 38
30 31 31 32 34 36 39 41 44 47 50 53 52 56 55 51 53 52 52 52 52 54 54 53 53 52 51 49 48 46 44 42 42 42 41 40 39 38 37 37 37 38 38 39
30 31 32 33 34 37 39 41 45 48 50 51 51 54 52 48 52 54 55 54 54 54 54 54 53 53 52 49 48 46 43 42 42 41 40 40 39 38 37 38 38 38 38 39
30 30 31 32 34 36 38 40 42 46 49 49 51 51 47 46 49 52 55 55 54 54 55 54 53 53 53 51 48 46 44 42 42 41 40 40 39 38 37 38 38 38 39 40
29 28 29 31 33 34 35 37 39 43 46 49 50 47 43 41 45 48 51 53 52 53 54 55 54 53 52 51 49 46 44 43 42 41 40 40 39 38 37 38 38 39 40 40
27 27 27 28 29 31 34 35 37 41 46 50 48 46 43 38 39 42 44 47 50 51 54 55 55 53 52 51 49 47 45 44 43 42 41 40 38 37 37 37 38 39 39 40
25 24 22 23 26 29 31 33 35 39 42 44 44 39 36 34 35 36 37 39 43 47 51 54 55 53 51 50 48 46 45 44 43 42 41 39 38 37 37 38 38 39 40 40
22 20 18 20 24 26 28 28 31 34 38 40 42 34 30 30 30 31 33 35 37 42 48 51 52 51 50 48 47 46 45 44 43 42 40 39 38 38 38 38 38 39 40 40
17 16 15 17 20 22 23 25 29 32 35 36 37 31 27 25 25 26 29 32 34 38 44 48 49 49 48 46 45 45 45 44 42 41 40 39 38 38 38 38 38 39 39 40
13 12 12 13 17 20 21 22 25 29 32 31 28 25 21 23 23 22 24 27 30 35 41 46 47 46 45 44 44 44 43 42 41 40 39 38 38 37 38 38 38 39 39 39
10 9 10 11 14 16 17 19 21 23 24 24 20 20 18 17 16 15 16 19 22 29 35 41 42 42 41 40 41 42 42 41 40 39 38 37 37 37 37 37 37 37 38 39
8 6 7 8 10 11 13 16 17 17 17 17 16 14 12 9 6 4 7 12 17 24 31 35 37 37 37 37 38 39 39 38 37 36 36 35 35 35 36 36 36 37 38 40
6 5 4 4 6 8 11 13 13 14 14 12 11 9 7 5 4 6 8 11 17 23 28 31 32 33 34 34 34 35 35 34 34 33 33 33 33 34 34 34 35 37 39 41
5 4 2 1 3 8 10 12 11 11 10 9 8 8 7 9 9 10 12 15 18 21 24 26 27 28 29 29 30 30 30 30 30 30 30 31 31 31 32 33 35 37 40 43
5 2 0 2 5 7 8 9 8 9 9 8 8 9 10 11 11 13 15 16 18 20 21 22 23 23 24 25 25 25 26 26 26 27 27 27 28 29 31 33 36 38 41 44
5 3 1 2 4 6 7 7 6 7 8 9 8 8 10 11 12 15 15 16 17 17 18 19 19 20 20 21 21 22 22 23 23 23 24 25 27 29 31 34 37 40 43 45
6 4 2 0 2 4 6 5 5 6 7 7 8 9 9 10 11 12 13 13 14 14 14 14 15 16 16 17 18 18 19 19 20 21 22 24 27 29 32 35 38 41 43 46
8 6 4 2 0 2 3 4 4 5 5 5 5 6 7 8 8 10 10 11 11 11 12 12 12 12 13 13 14 14 15 17 18 20 23 25 28 31 34 36 39 41 44 46
9 7 5 4 2 1 1 1 2 2 2 2 3 4 3 4 5 6 7 7 8 8 9 9 9 9 9 10 11 13 14 16 19 21 24 26 29 31 34 36 39 42 44 47
10 8 6 5 4 3 2 2 1 1 1 1 1 1 1 2 3 4 4 5 5 5 5 6 6 7 8 9 11 13 15 17 19 22 24 27 29 32 35 37 40 42 44 46
11 9 8 7 6 5 4 4 3 3 2 2 2 2 1 1 2 2 3 3 4 4 4 5 6 7 8 10 11 13 16 18 21 23 25 28 30 33 36 38 41 42 44 46
13 11 9 8 7 6 6 5 5 4 4 4 3 3 2 2 2 2 2 3 3 4 5 5 6 7 9 10 13 15 17 20 22 24 27 29 32 34 37 39 40 42 45 48
Wind_Direction
223 225 228 231 234 238 242 245 250 253 255 256 258 260 262 262 262 261 260 258 256 255 252 250 249 246 245 245 245 245 244 245 248 250 252 253 255 257 258 259 260 259 258 258
225 229 233 237 241 245 249 252 255 257 259 260 261 262 264 265 265 264 261 258 256 253 251 249 248 246 244 244 245 246 245 244 246 247 250 252 255 256 258 260 260 260 260 259
230 234 240 245 249 253 256 259 261 263 264 266 266 263 264 265 266 265 263 260 256 252 249 247 246 245 243 242 243 245 245 244 245 247 249 251 253 255 257 258 259 259 260 259
237 241 247 252 257 260 263 265 268 269 269 269 270 269 265 267 265 264 262 259 255 251 248 245 244 243 241 241 241 243 244 244 245 247 248 250 252 254 255 256 257 259 260 260
243 248 253 258 263 266 268 270 272 273 274 274 274 274 269 268 265 262 258 257 255 251 247 243 241 240 239 238 238 240 241 242 244 246 248 250 252 254 255 256 258 259 260 261
248 253 257 262 266 269 272 275 277 277 278 277 277 276 273 270 267 263 258 254 252 250 247 242 239 238 237 236 236 238 239 240 242 244 247 249 251 253 255 256 257 259 260 262
250 256 260 265 269 273 277 280 282 281 280 280 277 275 275 272 268 264 260 254 249 247 245 242 238 236 235 235 235 236 238 239 240 243 246 248 250 253 255 257 258 259 261 263
251 256 263 268 273 277 281 282 283 284 285 285 282 281 280 274 269 265 261 256 249 244 242 240 237 234 233 232 233 234 235 236 238 240 243 246 249 252 256 257 258 260 262 265
252 258 264 271 276 280 282 282 284 286 287 287 286 286 281 276 271 266 262 257 249 242 238 237 235 232 230 230 230 231 232 233 235 238 241 245 248 251 255 257 259 260 263 267
256 263 269 275 278 280 282 285 288 290 290 290 289 289 288 283 276 268 261 256 249 240 234 232 231 229 228 227 227 228 229 230 232 235 239 243 247 251 255 258 260 262 266 269
261 267 269 274 277 281 285 289 291 290 291 293 294 293 293 285 277 268 260 254 246 237 231 228 227 225 224 224 225 226 227 229 231 234 238 242 247 251 255 259 262 266 269 273
262 265 270 276 280 284 288 291 291 292 294 294 295 298 296 288 277 266 257 251 242 231 225 223 222 220 220 220 221 223 224 227 229 233 237 242 247 252 256 261 265 269 272 276
258 264 271 276 282 286 290 292 293 294 295 298 300 306 300 289 278 268 256 246 236 224 217 215 215 214 214 215 217 219 222 225 228 233 237 242 248 253 258 263 267 271 275 278
251 263 273 280 286 293 298 301 301 300 303 305 306 304 297 292 282 267 253 242 230 218 210 207 206 207 208 210 213 216 219 223 228 233 238 244 249 255 260 265 269 273 277 279
244 256 271 282 289 300 309 312 309 306 307 309 313 307 302 292 285 269 248 230 217 207 201 198 198 199 202 205 209 214 218 222 227 233 239 245 252 257 262 267 271 274 277 281
238 255 271 288 302 318 326 323 320 317 315 317 322 323 321 310 300 268 206 197 192 190 187 186 188 192 196 201 207 212 217 222 228 235 241 248 254 259 264 268 271 275 279 283
235 251 267 295 321 342 347 342 335 330 327 326 335 345 359 21 78 116 139 152 159 166 170 174 180 187 193 199 205 211 217 223 230 237 244 250 255 260 265 269 273 278 283 286
226 240 257 6 12 15 7 3 1 355 355 2 16 29 45 63 85 105 120 131 142 152 160 168 176 184 192 199 205 211 218 225 232 239 246 252 257 262 266 272 277 282 286 289
212 216 137 57 38 29 17 13 21 26 26 30 42 52 67 79 90 103 115 127 136 144 153 163 173 181 190 198 206 214 221 228 235 241 247 253 259 265 271 277 282 286 289 292
206 208 137 67 46 36 27 23 34 50 48 51 62 65 76 87 99 108 116 123 131 140 150 160 172 182 192 200 208 215 222 230 237 244 251 259 266 272 278 282 286 289 292 295
210 208 210 122 50 39 33 37 59 70 67 72 71 80 88 92 105 114 121 129 137 144 153 162 172 182 191 200 209 218 227 236 245 253 261 268 274 278 283 286 290 293 295 297
213 215 220 225 256 35 33 43 63 69 71 79 88 93 97 98 106 119 127 134 143 153 161 169 178 187 197 207 218 229 239 249 257 264 271 276 280 284 288 291 293 296 298 300
216 217 222 228 234 267 346 13 38 70 78 72 69 85 99 118 123 123 126 135 145 156 167 177 188 199 212 225 236 246 255 263 269 275 279 283 286 289 292 295 296 298 300 302
216 222 226 231 237 246 255 270 280 289 293 303 344 47 101 141 144 143 153 161 171 182 191 200 211 223 234 245 254 262 269 274 278 282 286 289 292 294 296 298 300 301 303 305
221 229 236 237 240 244 247 248 251 253 255 263 267 268 258 207 188 185 182 189 202 216 229 235 241 249 256 262 268 274 279 284 287 290 292 294 296 297 299 301 302 304 306 308
228 235 241 242 242 241 239 242 243 244 247 246 247 242 237 228 212 212 222 233 234 238 242 247 255 263 271 278 283 287 291 293 295 296 297 298 300 301 302 304 306 307 309 311